Location: Drummondville
(45.8830°N, 72.4830°W)
Time: 15:30:38
(UTC-05:00)

Tiangong 2 - Pass Details

Date: 10 November 2017
Orbit: 386 x 392 km, 42.8° (Epoch: 23 November)

Event Time Altitude Azimuth Distance (km) Brightness Sun altitude
Rises 16:58:13 0° 269° (W) 2,276 6.7 -6.4°
Reaches altitude 10° 17:00:22 10° 261° (W) 1,418 5.6 -6.8°
Maximum altitude 17:03:22 39° 191° (SSW) 597 2.3 -7.3°
Drops below altitude 10° 17:06:23 10° 121° (ESE) 1,412 3.5 -7.8°
Enters shadow 17:07:30 - 116° (ESE) 1,853 4.1 -7.9°
